Weather History for Redwood Falls, MN

Change the Weather History Date:

Friday, January 4, 2013

  Actual Average Record
Temperature  
Mean Temperature 20 °F -  
Max Temperature 28 °F 19 °F 46 °F (2012)
Min Temperature 10 °F 1 °F -23 °F (1960)
Degree Days  
Heating Degree Days 45    
Moisture  
Dew Point 13 °F    
Average Humidity 71    
Maximum Humidity 88    
Minimum Humidity 60    
Precipitation  
Precipitation 0.00 in - - ()
Sea Level Pressure  
Sea Level Pressure 30.13 in    
Wind  
Wind Speed 10 mph (WSW)    
Max Wind Speed 16 mph    
Max Gust Speed -    
Visibility 10 miles    
Events      
Averages and records for this station are not official NWS values.
T = Trace of Precipitation, MM = Missing Value Source: NWS Daily Summary

Daily Weather History Graph

Daily Weather History Graph

Search for Another Location

Airport:

Trip Planner

Search our weather history database for the weather conditions in past years. The results will help you decide how hot, cold, wet, or windy it might be!

Date:

Astronomy

Jan. 04, 2013 Rise Set
Actual Time 7:56 AM CST 4:54 PM CST
Civil Twilight 7:23 AM CST 5:27 PM CST
Nautical Twilight 6:47 AM CST 6:04 PM CST
Astronomical Twilight 6:11 AM CST 6:39 PM CST
Moon No Moon Rise 11:21 AM CST (1/4)
Length of Visible Light 10h 03m
Length of Day
8h 57m
Waning Gibbous, 55% of the Moon is Illuminated
Jan 4
Waning Gibbous
Jan 4
Last Quarter
Jan 11
New
Jan 18
First Quarter
Jan 26
Full

Hourly Weather History & Observations

Time (CST) Temp. Windchill Dew Point Humidity Pressure Visibility Wind Dir Wind Speed Gust Speed Precip Events Conditions
12:53 AM 21.9 °F 8.2 °F 14.0 °F 72% 30.11 in 10.0 mi WSW 16.1 mph - N/A   Clear
1:53 AM 24.1 °F 11.5 °F 15.1 °F 69% 30.11 in 10.0 mi West 15.0 mph - N/A   Clear
2:53 AM 21.9 °F 11.0 °F 14.0 °F 72% 30.12 in 10.0 mi WSW 10.4 mph - N/A   Clear
3:53 AM 21.9 °F 12.5 °F 12.9 °F 68% 30.10 in 10.0 mi WSW 8.1 mph - N/A   Clear
4:53 AM 19.9 °F 8.6 °F 12.0 °F 71% 30.09 in 10.0 mi WSW 10.4 mph - N/A   Clear
6:53 AM 19.9 °F 8.6 °F 10.9 °F 68% 30.10 in 10.0 mi West 10.4 mph - N/A   Clear
7:53 AM 19.9 °F 7.9 °F 10.0 °F 65% 30.12 in 10.0 mi West 11.5 mph - N/A   Clear
8:53 AM 19.9 °F 7.9 °F 10.0 °F 65% 30.13 in 10.0 mi WNW 11.5 mph - N/A   Clear
9:53 AM 21.0 °F 10.6 °F 10.9 °F 65% 30.15 in 10.0 mi West 9.2 mph - N/A   Clear
10:53 AM 24.1 °F 12.0 °F 12.0 °F 60% 30.16 in 10.0 mi West 13.8 mph - N/A   Clear
11:53 AM 25.0 °F 15.5 °F 12.9 °F 60% 30.16 in 10.0 mi WNW 9.2 mph - N/A   Clear
12:53 PM 26.1 °F 17.6 °F 14.0 °F 60% 30.14 in 10.0 mi West 8.1 mph - N/A   Clear
1:53 PM 27.0 °F 16.7 °F 15.1 °F 61% 30.14 in 10.0 mi West 11.5 mph - N/A   Clear
2:53 PM 28.0 °F 20.0 °F 16.0 °F 61% 30.14 in 10.0 mi West 8.1 mph - N/A   Clear
3:53 PM 27.0 °F 20.5 °F 16.0 °F 63% 30.14 in 10.0 mi West 5.8 mph - N/A   Clear
4:53 PM 27.0 °F - 17.1 °F 66% 30.15 in 10.0 mi Calm Calm - N/A   Clear
5:53 PM 21.9 °F - 16.0 °F 78% 30.15 in 10.0 mi Calm Calm - N/A   Clear
6:53 PM 18.0 °F 8.7 °F 14.0 °F 84% 30.16 in 10.0 mi SSW 6.9 mph - N/A   Clear
7:53 PM 16.0 °F 7.4 °F 12.0 °F 84% 30.16 in 10.0 mi South 5.8 mph - N/A   Clear
8:53 PM 12.9 °F 5.2 °F 10.0 °F 88% 30.14 in 10.0 mi SSW 4.6 mph - N/A   Clear
9:53 PM 14.0 °F - 10.9 °F 88% 30.12 in 10.0 mi Calm Calm - N/A   Clear
10:53 PM 12.0 °F 2.7 °F 7.0 °F 80% 30.11 in 10.0 mi South 5.8 mph - N/A   Clear
11:53 PM 10.9 °F - 5.0 °F 77% 30.11 in 10.0 mi Calm Calm - N/A   Clear